| time (UTC) | temp F | wind direction | speed knots | gust knots | rain 1hr in | rain 24hr in | rain mn in | humidity % | barometer mb |
| 20260906164553 | 92 | 131 | 1.7 | 7.8 | 0.00 | 0.00 | 0.00 | 65 | 1013.3 |
| 20260906163052 | 91 | 91 | 2.6 | 7.8 | 0.00 | 0.00 | 0.00 | 67 | 1013.4 |
| 20260906161549 | 90 | 99 | 1.7 | 7.0 | 0.00 | 0.00 | 0.00 | 69 | 1013.4 |
| 20260906160042 | 89 | 58 | 1.7 | 7.0 | 0.00 | 0.00 | 0.00 | 72 | 1013.6 |
| 20260906154541 | 87 | 67 | 1.7 | 6.1 | 0.00 | 0.00 | 0.00 | 75 | 1013.4 |
| 20260906153033 | 86 | 75 | 2.6 | 5.2 | 0.00 | 0.00 | 0.00 | 76 | 1013.4 |
| 20260906151530 | 84 | 83 | 1.7 | 5.2 | 0.00 | 0.00 | 0.00 | 80 | 1013.5 |
| 20260906150028 | 83 | 89 | 0.9 | 5.2 | 0.00 | 0.00 | 0.00 | 83 | 1013.4 |
| 20260906144522 | 82 | 54 | 1.7 | 3.5 | 0.00 | 0.00 | 0.00 | 85 | 1013.4 |
| 20260906143017 | 81 | 98 | 1.7 | 5.2 | 0.00 | 0.00 | 0.00 | 86 | 1013.4 |
| 20260906141515 | 80 | 39 | 1.7 | 4.3 | 0.00 | 0.00 | 0.00 | 87 | 1013.2 |
| 20260906140018 | 79 | 28 | 1.7 | 5.2 | 0.00 | 0.00 | 0.00 | 88 | 1013.3 |
| 20260906134512 | 78 | 36 | 1.7 | 7.8 | 0.00 | 0.00 | 0.00 | 89 | 1013.2 |
| 20260906133010 | 77 | 15 | 1.7 | 5.2 | 0.00 | 0.00 | 0.00 | 89 | 1013.3 |
| 20260906131508 | 77 | 24 | 0.0 | 4.3 | 0.00 | 0.00 | 0.00 | 88 | 1013.0 |
| 20260906130013 | 77 | 52 | 0.0 | 3.5 | 0.00 | 0.00 | 0.00 | 88 | 1012.7 |
| 20260906124504 | 77 | 78 | 0.0 | 3.5 | 0.00 | 0.00 | 0.00 | 88 | 1012.6 |
| 20260906123012 | 77 | 96 | 0.0 | 2.6 | 0.00 | 0.00 | 0.00 | 88 | 1012.5 |
| 20260906121503 | 77 | 69 | 0.0 | 6.1 | 0.00 | 0.00 | 0.00 | 87 | 1012.4 |
| 20260906120001 | 77 | 47 | 0.0 | 4.3 | 0.00 | 0.00 | 0.00 | 87 | 1012.5 |
| 20260906114622 | 77 | 35 | 0.0 | 3.5 | 0.00 | 0.00 | 0.00 | 87 | 1012.3 |
| 20260906113058 | 77 | 36 | 0.0 | 3.5 | 0.00 | 0.00 | 0.00 | 87 | 1012.2 |
| 20260906111621 | 77 | 47 | 0.0 | 2.6 | 0.00 | 0.00 | 0.00 | 86 | 1012.1 |
| 20260906110056 | 77 | 49 | 0.0 | 3.5 | 0.00 | 0.00 | 0.00 | 86 | 1012.0 |
| 20260906104557 | 77 | 53 | 0.0 | 2.6 | 0.00 | 0.00 | 0.00 | 86 | 1012.2 |
| 20260906103054 | 77 | 63 | 0.0 | 2.6 | 0.00 | 0.00 | 0.00 | 85 | 1012.0 |
| 20260906101552 | 77 | 56 | 0.0 | 3.5 | 0.00 | 0.00 | 0.00 | 85 | 1011.9 |
| 20260906100051 | 77 | 49 | 0.0 | 3.5 | 0.00 | 0.00 | 0.00 | 84 | 1011.6 |
| 20260906094549 | 77 | 115 | 0.0 | 1.7 | 0.00 | 0.00 | 0.00 | 83 | 1011.5 |
| 20260906093056 | 77 | 115 | 0.0 | 1.7 | 0.00 | 0.00 | 0.00 | 83 | 1011.5 |
| 20260906091548 | 77 | 115 | 0.0 | 0.9 | 0.00 | 0.00 | 0.00 | 83 | 1011.4 |
| 20260906090047 | 77 | 115 | 0.0 | 3.5 | 0.00 | 0.00 | 0.00 | 83 | 1011.3 |
| 20260906084551 | 77 | 101 | 0.9 | 2.6 | 0.00 | 0.00 | 0.00 | 82 | 1011.1 |
| 20260906083045 | 77 | 140 | 0.0 | 1.7 | 0.00 | 0.00 | 0.00 | 81 | 1011.0 |
| 20260906081551 | 77 | 140 | 0.0 | 2.6 | 0.00 | 0.00 | 0.00 | 80 | 1011.0 |
| 20260906080042 | 77 | 142 | 0.0 | 0.9 | 0.00 | 0.00 | 0.00 | 79 | 1010.9 |
| 20260906074544 | 77 | 142 | 0.0 | 2.6 | 0.00 | 0.00 | 0.00 | 79 | 1011.0 |
| 20260906073051 | 77 | 159 | 0.0 | 0.0 | 0.00 | 0.00 | 0.00 | 77 | 1011.1 |
| 20260906071538 | 78 | 159 | 0.0 | 0.0 | 0.00 | 0.00 | 0.00 | 77 | 1011.1 |
| 20260906070040 | 78 | 159 | 0.0 | 0.9 | 0.00 | 0.00 | 0.00 | 77 | 1011.1 |
| 20260906064535 | 78 | 159 | 0.0 | 0.0 | 0.00 | 0.00 | 0.00 | 77 | 1011.2 |
| 20260906063035 | 78 | 159 | 0.0 | 0.0 | 0.00 | 0.00 | 0.00 | 76 | 1011.3 |
| 20260906061534 | 79 | 159 | 0.0 | 0.0 | 0.00 | 0.00 | 0.00 | 76 | 1011.4 |
| 20260906060031 | 79 | 159 | 0.0 | 0.0 | 0.00 | 0.00 | 0.00 | 75 | 1011.4 |
| 20260906054531 | 79 | 159 | 0.0 | 0.9 | 0.00 | 0.00 | 0.00 | 75 | 1011.4 |
| 20260906053035 | 79 | 159 | 0.0 | 1.7 | 0.00 | 0.00 | 0.00 | 75 | 1011.3 |
| 20260906051526 | 80 | 159 | 0.0 | 0.9 | 0.00 | 0.00 | 0.00 | 74 | 1011.3 |
| 20260906050023 | 80 | 163 | 0.0 | 0.9 | 0.00 | 0.00 | 0.00 | 73 | 1011.2 |
| 20260906044522 | 80 | 163 | 0.0 | 1.7 | 0.00 | 0.00 | 0.00 | 73 | 1011.1 |
| 20260906043038 | 80 | 163 | 0.0 | 0.0 | 0.00 | 0.00 | 0.00 | 70 | 1011.1 |
| 20260906041522 | 81 | 163 | 0.0 | 0.0 | 0.00 | 0.00 | 0.00 | 71 | 1011.1 |
| 20260906040024 | 81 | 163 | 0.0 | 0.9 | 0.00 | 0.00 | 0.00 | 70 | 1011.0 |
| 20260906034525 | 82 | 163 | 0.0 | 0.0 | 0.00 | 0.00 | 0.00 | 68 | 1010.8 |
| 20260906033021 | 82 | 163 | 0.0 | 0.0 | 0.00 | 0.00 | 0.00 | 67 | 1010.6 |
| 20260906031516 | 0 | 0.0 | 0.0 | 0.00 | 0.00 | 0.00 | 1010.5 | ||
| 20260906030012 | 0 | 0.0 | 0.0 | 0.00 | 0.00 | 0.00 | 1010.4 | ||
| 20260906024508 | 0 | 0.0 | 0.0 | 0.00 | 0.00 | 0.00 | 1010.2 | ||
| 20260906023003 | 0 | 0.0 | 0.0 | 0.00 | 0.00 | 0.00 | 1010.0 | ||
| 20260906021559 | 0 | 0.0 | 0.0 | 0.00 | 0.00 | 0.00 | 1009.9 | ||
| 20260906020055 | 0 | 0.0 | 0.0 | 0.00 | 0.00 | 0.00 | 1009.7 | ||
| 20260906014606 | 0 | 0.0 | 0.0 | 0.00 | 0.00 | 0.00 | 1009.6 | ||
| 20260906013050 | 88 | 163 | 0.0 | 0.9 | 0.00 | 0.00 | 0.00 | 57 | 1009.4 |
| 20260906011555 | 90 | 163 | 0.0 | 1.7 | 0.00 | 0.00 | 0.00 | 55 | 1009.2 |
| 20260906010049 | 91 | 163 | 0.0 | 0.9 | 0.00 | 0.00 | 0.00 | 54 | 1009.1 |
| 20260906004553 | 92 | 163 | 0.0 | 0.9 | 0.00 | 0.00 | 0.00 | 53 | 1009.0 |
| 20260906003049 | 0 | 0.0 | 0.0 | 0.00 | 0.00 | 0.00 | 1009.0 | ||
| 20260906001540 | 0 | 0.0 | 0.0 | 0.00 | 0.00 | 0.00 | 1009.0 | ||
| 20260906000038 | 0 | 0.0 | 0.0 | 0.00 | 0.00 | 0.00 | 1009.0 | ||
| 20260905234536 | 0 | 0.0 | 0.0 | 0.00 | 0.00 | 0.00 | 1009.0 | ||
| 20260905233027 | 0 | 0.0 | 0.0 | 0.00 | 0.00 | 0.00 | 1008.9 | ||
| 20260905231522 | 0 | 0.0 | 0.0 | 0.00 | 0.00 | 0.00 | 1008.8 | ||
| 20260905230018 | 0 | 0.0 | 0.0 | 0.00 | 0.00 | 0.00 | 1008.6 | ||
| 20260905224515 | 0 | 0.0 | 0.0 | 0.00 | 0.00 | 0.00 | 1008.6 | ||
| 20260905223009 | 0 | 0.0 | 0.0 | 0.00 | 0.00 | 0.00 | 1008.6 | ||
| 20260905221505 | 0 | 0.0 | 0.0 | 0.00 | 0.00 | 0.00 | 1008.5 | ||
| 20260905220111 | 0 | 0.0 | 0.0 | 0.00 | 0.00 | 0.00 | 1008.5 | ||
| 20260905213032 | 0 | 0.0 | 0.0 | 0.00 | 0.00 | 0.00 | 1008.8 | ||
| 20260905211527 | 0 | 0.0 | 0.0 | 0.00 | 0.00 | 0.00 | 1009.1 | ||
| 20260905210024 | 0 | 0.0 | 0.0 | 0.00 | 0.00 | 0.00 | 1009.3 | ||
| 20260905204518 | 0 | 0.0 | 0.0 | 0.00 | 0.00 | 0.00 | 1009.6 | ||
| 20260905203015 | 0 | 0.0 | 0.0 | 0.00 | 0.00 | 0.00 | 1009.6 | ||
| 20260905201518 | 0 | 0.0 | 0.0 | 0.00 | 0.00 | 0.00 | 1009.8 | ||
| 20260905200014 | 0 | 0.0 | 0.0 | 0.00 | 0.00 | 0.00 | 1009.9 | ||
| 20260905194513 | 0 | 0.0 | 0.0 | 0.00 | 0.00 | 0.00 | 1010.0 | ||
| 20260905193015 | 0 | 0.0 | 0.0 | 0.00 | 0.00 | 0.00 | 1010.2 | ||
| 20260905191513 | 0 | 0.0 | 0.0 | 0.00 | 0.00 | 0.00 | 1010.2 | ||
| 20260905190036 | 0 | 0.0 | 0.0 | 0.00 | 0.00 | 0.00 | 1010.4 | ||
| 20260905184511 | 0 | 0.0 | 0.0 | 0.00 | 0.00 | 0.00 | 1010.6 | ||
| 20260905183015 | 0 | 0.0 | 0.0 | 0.00 | 0.00 | 0.00 | 1010.7 | ||
| 20260905181511 | 0 | 0.0 | 0.0 | 0.00 | 0.00 | 0.00 | 1010.8 | ||
| 20260905180002 | 0 | 0.0 | 0.0 | 0.00 | 0.00 | 0.00 | 1010.9 | ||
| 20260905174559 | 0 | 0.0 | 0.0 | 0.00 | 0.00 | 0.00 | 1011.0 | ||
| 20260905173053 | 0 | 0.0 | 0.0 | 0.00 | 0.00 | 0.00 | 1011.4 | ||
| 20260905171550 | 0 | 0.0 | 0.0 | 0.00 | 0.00 | 0.00 | 1011.7 | ||
| 20260905170045 | 0 | 0.0 | 0.0 | 0.00 | 0.00 | 0.00 | 1011.9 |